Location: Cadenet
(43.7345°N, 5.3750°E)
Time: 18:45:25
(UTC+00:00)

Cosmos 2221 - Pass Details

Date: 18 February 2020
Orbit: 593 x 615 km, 82.5° (Epoch: 28 March)

Event Time Altitude Azimuth Distance (km) Brightness Sun altitude
Rises 04:26:17 0° 179° (S) 2,819 5.9 -23.7°
Reaches altitude 10° 04:28:29 10° 176° (S) 1,924 5.1 -23.3°
Maximum altitude 04:32:41 64° 96° (E) 663 2.8 -22.5°
Drops below altitude 10° 04:36:57 10° 14° (NNE) 1,950 5.3 -21.8°
Sets 04:39:11 0° 12° (NNE) 2,861 6.2 -21.3°
